DeKalb, IL

5:42 PM CDT on March 27, 2017 (GMT -0500)
De Kalb Taylor Municipal

Weather History for KDKB - September, 2013

Change the Weather History Date:

Saturday, September 21, 2013

  Actual Average (KARR) Record (KARR)
Temperature  
Mean Temperature 56 °F -  
Max Temperature 66 °F 71 °F 88 °F (2005)
Min Temperature 48 °F 46 °F 36 °F (1999)
Degree Days  
Heating Degree Days 8    
Growing Degree Days 6 (Base 50)    
Moisture  
Dew Point 50 °F    
Average Humidity 79    
Maximum Humidity 92    
Minimum Humidity 58    
Precipitation  
Precipitation 0.00 in - - ()
Sea Level Pressure  
Sea Level Pressure 29.90 in    
Wind  
Wind Speed 8 mph (NNW)    
Max Wind Speed 13 mph    
Max Gust Speed 20 mph    
Visibility 10 miles    
Events      
Averages and records for this station are not official NWS values.
T = Trace of Precipitation, MM = Missing Value Source: NWS Daily Summary

Daily Weather History Graph

Daily Weather History Graph

Search for Another Location

Airport or City:

Trip Planner

Search our weather history database for the weather conditions in past years. The results will help you decide how hot, cold, wet, or windy it might be!

Date:

Astronomy

Sep. 21, 2013 Rise Set
Actual Time 6:41 AM CDT 6:53 PM CDT
Civil Twilight 6:13 AM CDT 7:21 PM CDT
Nautical Twilight 5:40 AM CDT 7:53 PM CDT
Astronomical Twilight 5:07 AM CDT 8:27 PM CDT
Moon 8:00 PM CDT (9/21) 9:02 AM CDT (9/21)
Length of Visible Light 13h 07m
Length of Day
12h 11m
Waning Gibbous, 94% of the Moon is Illuminated
Sep 21
Waning Gibbous
Sep 26
Last Quarter
Oct 4
New
Oct 11
First Quarter
Oct 18
Full

Hourly Weather History & Observations

Time (CDT) Temp. Dew Point Humidity Pressure Visibility Wind Dir Wind Speed Gust Speed Precip Events Conditions
12:15 AM 56.5 °F 53.2 °F 89% 29.86 in 10.0 mi West 9.2 mph - N/A   Clear
12:35 AM 55.9 °F 52.7 °F 89% 29.85 in 10.0 mi WNW 10.4 mph 16.1 mph N/A   Clear
12:55 AM 55.9 °F 52.7 °F 89% 29.85 in 10.0 mi WNW 10.4 mph 16.1 mph N/A   Clear
1:15 AM 55.6 °F 52.3 °F 89% 29.86 in 10.0 mi WNW 8.1 mph - N/A   Clear
1:35 AM 55.2 °F 52.2 °F 89% 29.86 in 10.0 mi WNW 9.2 mph - N/A   Clear
1:55 AM 54.7 °F 51.8 °F 90% 29.85 in 10.0 mi WNW 8.1 mph - N/A   Clear
2:15 AM 54.3 °F 51.4 °F 90% 29.85 in 10.0 mi WNW 8.1 mph - N/A   Clear
2:35 AM 54.1 °F 51.4 °F 91% 29.84 in 10.0 mi WNW 6.9 mph - N/A   Clear
2:55 AM 53.6 °F 50.9 °F 91% 29.84 in 10.0 mi WNW 9.2 mph - N/A   Clear
3:15 AM 53.4 °F 50.7 °F 91% 29.84 in 10.0 mi WNW 8.1 mph - N/A   Clear
3:35 AM 52.9 °F 50.4 °F 91% 29.84 in 10.0 mi WNW 9.2 mph - N/A   Clear
3:55 AM 52.9 °F 50.4 °F 91% 29.84 in 10.0 mi NW 8.1 mph - N/A   Clear
4:15 AM 52.9 °F 50.4 °F 91% 29.84 in 10.0 mi NW 6.9 mph - N/A   Clear
4:35 AM 52.2 °F 49.6 °F 91% 29.85 in 10.0 mi NW 6.9 mph - N/A   Clear
4:55 AM 51.8 °F 49.1 °F 90% 29.85 in 10.0 mi NW 6.9 mph - N/A   Clear
5:15 AM 51.8 °F 49.1 °F 90% 29.86 in 10.0 mi NW 8.1 mph - N/A   Clear
5:35 AM 51.8 °F 49.1 °F 90% 29.86 in 10.0 mi WNW 8.1 mph - N/A   Clear
5:55 AM 51.4 °F 49.1 °F 92% 29.86 in 10.0 mi WNW 8.1 mph - N/A   Clear
6:15 AM 51.3 °F 48.7 °F 91% 29.87 in 10.0 mi NW 5.8 mph - N/A   Clear
6:35 AM 50.9 °F 48.4 °F 91% 29.87 in 10.0 mi NW 6.9 mph - N/A   Clear
6:55 AM 50.9 °F 48.4 °F 91% 29.88 in 10.0 mi NW 5.8 mph - N/A   Clear
7:15 AM 50.9 °F 48.4 °F 91% 29.88 in 10.0 mi NW 4.6 mph - N/A   Clear
7:35 AM 51.8 °F 49.3 °F 91% 29.89 in 10.0 mi NW 6.9 mph - N/A   Clear
7:55 AM 52.9 °F 50.4 °F 91% 29.89 in 10.0 mi NNW 4.6 mph - N/A   Clear
8:15 AM 54.1 °F 51.4 °F 91% 29.90 in 10.0 mi NNW 6.9 mph - N/A   Clear
8:35 AM 55.0 °F 52.0 °F 89% 29.90 in 10.0 mi North 8.1 mph - N/A   Clear
8:55 AM 56.1 °F 52.0 °F 86% 29.90 in 10.0 mi NNW 12.7 mph - N/A   Clear
9:15 AM 57.0 °F 52.0 °F 83% 29.91 in 10.0 mi NNW 9.2 mph - N/A   Clear
9:35 AM 58.1 °F 52.2 °F 81% 29.91 in 10.0 mi NNW 8.1 mph - N/A   Clear
9:55 AM 59.2 °F 52.5 °F 79% 29.91 in 10.0 mi NNW 8.1 mph - N/A   Clear
10:15 AM 60.6 °F 52.7 °F 75% 29.91 in 10.0 mi NNW 6.9 mph - N/A   Clear
10:35 AM 60.8 °F 51.1 °F 70% 29.91 in 10.0 mi North 10.4 mph - N/A   Clear
10:55 AM 61.0 °F 51.1 °F 70% 29.92 in 10.0 mi NNW 9.2 mph - N/A   Clear
11:15 AM 61.3 °F 51.1 °F 69% 29.92 in 10.0 mi NW 9.2 mph - N/A   Scattered Clouds
11:35 AM 62.6 °F 51.1 °F 66% 29.92 in 10.0 mi NW 10.4 mph - N/A   Mostly Cloudy
11:55 AM 61.7 °F 50.5 °F 67% 29.92 in 10.0 mi NW 6.9 mph - N/A   Mostly Cloudy
12:15 PM 63.7 °F 50.9 °F 63% 29.92 in 10.0 mi NNW 12.7 mph 18.4 mph N/A   Mostly Cloudy
12:35 PM 61.9 °F 50.2 °F 65% 29.92 in 10.0 mi NW 8.1 mph - N/A   Mostly Cloudy
12:55 PM 62.2 °F 50.0 °F 64% 29.92 in 10.0 mi NNW 11.5 mph 18.4 mph N/A   Overcast
1:15 PM 64.6 °F 51.1 °F 62% 29.91 in 10.0 mi NNW 12.7 mph 18.4 mph N/A   Scattered Clouds
1:35 PM 63.7 °F 49.8 °F 61% 29.91 in 10.0 mi NNW 9.2 mph - N/A   Scattered Clouds
1:55 PM 65.3 °F 51.1 °F 60% 29.91 in 10.0 mi NW 8.1 mph - N/A   Mostly Cloudy
2:15 PM 63.7 °F 50.4 °F 62% 29.91 in 10.0 mi NW 11.5 mph 16.1 mph N/A   Scattered Clouds
2:35 PM 63.3 °F 49.5 °F 61% 29.91 in 10.0 mi NNW 8.1 mph - N/A   Scattered Clouds
2:55 PM 65.8 °F 50.9 °F 58% 29.90 in 10.0 mi NNW 12.7 mph 17.3 mph N/A   Mostly Cloudy
3:15 PM 65.1 °F 50.5 °F 59% 29.89 in 10.0 mi NW 12.7 mph 19.6 mph N/A   Mostly Cloudy
3:35 PM 64.8 °F 50.0 °F 59% 29.89 in 10.0 mi NNW 10.4 mph - N/A   Mostly Cloudy
3:55 PM 63.9 °F 49.5 °F 59% 29.89 in 10.0 mi NW 10.4 mph - N/A   Scattered Clouds
4:15 PM 64.9 °F 49.6 °F 58% 29.89 in 10.0 mi NW 10.4 mph 16.1 mph N/A   Scattered Clouds
4:35 PM 65.5 °F 50.4 °F 58% 29.90 in 10.0 mi NNW 10.4 mph - N/A   Scattered Clouds
4:55 PM 64.2 °F 49.5 °F 59% 29.90 in 10.0 mi North 9.2 mph - N/A   Clear
5:15 PM 64.8 °F 50.0 °F 59% 29.90 in 10.0 mi NNW 10.4 mph - N/A   Scattered Clouds
5:35 PM 63.5 °F 49.6 °F 61% 29.90 in 10.0 mi NNW 6.9 mph - N/A   Scattered Clouds
5:55 PM 62.8 °F 49.8 °F 63% 29.90 in 10.0 mi NNW 9.2 mph - N/A   Clear
6:15 PM 61.2 °F 50.4 °F 68% 29.91 in 10.0 mi North 4.6 mph - N/A   Clear
6:35 PM 59.2 °F 50.7 °F 74% 29.91 in 10.0 mi NNE 5.8 mph - N/A   Clear
6:55 PM 57.2 °F 50.5 °F 78% 29.91 in 10.0 mi NNE 3.5 mph - N/A   Clear
7:15 PM 55.6 °F 50.0 °F 81% 29.91 in 4.0 mi NNE 3.5 mph - N/A   Haze
7:35 PM 54.3 °F 49.1 °F 83% 29.92 in 10.0 mi NNE 5.8 mph - N/A   Clear
7:55 PM 52.9 °F 48.6 °F 85% 29.93 in 10.0 mi NNE 5.8 mph - N/A   Clear
8:15 PM 52.9 °F 48.7 °F 86% 29.93 in 10.0 mi NNE 6.9 mph - N/A   Clear
8:35 PM 51.8 °F 47.7 °F 86% 29.94 in 10.0 mi NE 4.6 mph - N/A   Clear
8:55 PM 51.1 °F 47.3 °F 87% 29.94 in 10.0 mi NE 4.6 mph - N/A   Clear
9:15 PM 50.7 °F 47.1 °F 87% 29.95 in 10.0 mi NE 3.5 mph - N/A   Clear
9:35 PM 50.2 °F 46.8 °F 88% 29.95 in 10.0 mi ENE 3.5 mph - N/A   Clear
9:55 PM 50.4 °F 46.8 °F 87% 29.95 in 10.0 mi NE 3.5 mph - N/A   Clear
10:15 PM 50.9 °F 46.9 °F 86% 29.96 in 10.0 mi NE 3.5 mph - N/A   Clear
10:35 PM 50.2 °F 46.4 °F 87% 29.96 in 10.0 mi NNE 4.6 mph - N/A   Clear
10:55 PM 50.0 °F 46.4 °F 87% 29.96 in 10.0 mi NE 3.5 mph - N/A   Clear
11:15 PM 50.4 °F 46.6 °F 87% 29.96 in 10.0 mi Calm Calm - N/A   Clear
11:35 PM 48.6 °F 45.0 °F 87% 29.96 in 10.0 mi Calm Calm - N/A   Clear
11:55 PM 48.6 °F 45.5 °F 89% 29.97 in 10.0 mi Calm Calm - N/A   Clear